Home > Weather > Speyer > Past weeks

Flag for Germany Weather for the Past 2 Weeks in Speyer, Rhineland-Palatinate, Germany

Now
73 °F

Sunny.


Feels Like: 76 °F
Forecast: 48 / 75 °F
Wind: 3 mph from North

Location: Mannheim City

Current Time: May 6, 2016 at 3:05:35 PM

Latest Report: May 6, 2016 at 2:20 PM


Visibility: 10 mi

Pressure: 29.98 "Hg

Humidity: 29%

Dew Point: 39 °F

Location of SpeyerLocation

Historic Weather in Speyer — Graph

°F

Speyer Temperature Yesterday

Maximum temperature yesterday: 70 °F (at 5:50 PM)
Minimum temperature yesterday: 52 °F (at 7:50 AM)
Average temperature yesterday: 63 °F

High & Low Weather Summary for the Past Weeks

 TemperatureHumidityPressure
High72 °F (Apr 21, 4:50 PM)100% (Apr 23, 11:20 AM)30.39 "Hg (Apr 23, 11:20 AM)
Low36 °F (Apr 25, 6:50 AM)23% (Apr 21, 4:50 PM)29.59 "Hg (Apr 26, 5:50 AM)
Average53 °F57%30.02 "Hg
* Reported Apr 21 1:20 PM — May 6 1:50 PM, Speyer, Weather by CustomWeather, © 2016

Note: Actual official high and low records may vary slightly from our data, if they occured in-between our weather recording intervals... More about our weather records

Advertising

Speyer Weather History for the Previous 24 Hours

Scroll right to see more
 ConditionsComfort  
Time TempWeatherWind HumidityBarometerVisibility
1:50 PM
Fri, May 6
72 °FPassing clouds.6 mph36%29.98 "HgN/A
1:20 PM72 °FPassing clouds.6 mph36%29.98 "HgN/A
12:50 PM70 °FPassing clouds.5 mph40%30.01 "HgN/A
12:20 PM68 °FSunny.5 mph43%30.01 "Hg10 mi
11:50 AM68 °FSunny.3 mph49%30.01 "Hg10 mi
11:20 AM66 °FSunny.3 mph49%30.04 "Hg10 mi
10:50 AM64 °FSunny.3 mph52%30.04 "Hg10 mi
10:20 AM63 °FSunny.3 mph56%30.04 "Hg10 mi
9:50 AM61 °FSunny.2 mph59%30.04 "Hg10 mi
9:20 AM59 °FSunny.3 mph63%30.04 "Hg10 mi
8:50 AM59 °FSunny.2 mph63%30.04 "Hg10 mi
8:20 AM57 °FSunny.1 mph63%30.04 "Hg10 mi
7:50 AM54 °FPassing clouds.5 mph77%30.04 "HgN/A
7:20 AM54 °FSunny.No wind77%30.04 "Hg10 mi
6:50 AM48 °FClear.No wind87%30.04 "Hg10 mi
6:20 AM46 °FClear.2 mph87%30.04 "Hg10 mi
5:50 AM46 °FClear.1 mph93%30.04 "Hg10 mi
7:20 PM
Thu, May 5
68 °FPassing clouds.12 mph40%30.09 "HgN/A
6:50 PM68 °FPassing clouds.9 mph40%30.09 "HgN/A
6:20 PM70 °FSunny.13 mph38%30.09 "Hg10 mi
5:50 PM70 °FPassing clouds.10 mph38%30.12 "HgN/A
5:20 PM68 °FPassing clouds.10 mph38%30.12 "HgN/A
4:50 PM68 °FPassing clouds.12 mph38%30.12 "HgN/A
4:20 PM68 °FPassing clouds.12 mph38%30.12 "HgN/A
3:50 PM68 °FPassing clouds.13 mph38%30.15 "HgN/A
3:20 PM68 °FPassing clouds.10 mph38%30.15 "HgN/A
Weather by CustomWeather, © 2016

See weather overviewHow to use our weather pages